| time (UTC) | temp F | wind direction | speed knots | gust knots | rain 1hr in | rain 24hr in | rain mn in | humidity % | barometer mb |
| 20260505194542 | 84 | 123 | 3.5 | 7.8 | 0.00 | 0.00 | 0.00 | 35 | 1009.2 |
| 20260505193037 | 83 | 202 | 2.6 | 8.7 | 0.00 | 0.00 | 0.00 | 40 | 1009.2 |
| 20260505191543 | 83 | 79 | 2.6 | 9.6 | 0.00 | 0.00 | 0.00 | 37 | 1009.4 |
| 20260505190041 | 84 | 217 | 3.5 | 7.8 | 0.00 | 0.00 | 0.00 | 38 | 1009.5 |
| 20260505184547 | 84 | 198 | 2.6 | 8.7 | 0.00 | 0.00 | 0.00 | 40 | 1009.8 |
| 20260505183043 | 83 | 234 | 2.6 | 7.8 | 0.00 | 0.00 | 0.00 | 42 | 1009.9 |
| 20260505181538 | 83 | 163 | 1.7 | 7.0 | 0.00 | 0.00 | 0.00 | 42 | 1010.1 |
| 20260505180037 | 82 | 123 | 3.5 | 8.7 | 0.00 | 0.00 | 0.00 | 41 | 1010.3 |
| 20260505174539 | 83 | 296 | 2.6 | 6.1 | 0.00 | 0.00 | 0.00 | 41 | 1010.4 |
| 20260505173039 | 83 | 316 | 2.6 | 7.0 | 0.00 | 0.00 | 0.00 | 44 | 1010.6 |
| 20260505171537 | 83 | 162 | 2.6 | 7.0 | 0.00 | 0.00 | 0.00 | 47 | 1010.6 |
| 20260505170038 | 82 | 55 | 2.6 | 9.6 | 0.00 | 0.00 | 0.00 | 46 | 1010.7 |
| 20260505164538 | 82 | 155 | 2.6 | 8.7 | 0.00 | 0.00 | 0.00 | 46 | 1010.8 |
| 20260505163050 | 82 | 214 | 1.7 | 6.1 | 0.00 | 0.00 | 0.00 | 46 | 1010.9 |
| 20260505161540 | 82 | 288 | 1.7 | 7.8 | 0.00 | 0.00 | 0.00 | 45 | 1010.8 |
| 20260505153050 | 80 | 278 | 0.9 | 5.2 | 0.00 | 0.00 | 0.00 | 48 | 1011.3 |
| 20260505151545 | 80 | 150 | 1.7 | 3.5 | 0.00 | 0.00 | 0.00 | 47 | 1011.3 |
| 20260505124543 | 69 | 97 | 0.9 | 1.7 | 0.00 | 0.00 | 0.00 | 61 | 1012.1 |
| 20260505123041 | 68 | 142 | 0.9 | 3.5 | 0.00 | 0.00 | 0.00 | 62 | 1011.8 |
| 20260505121546 | 66 | 78 | 0.0 | 1.7 | 0.00 | 0.00 | 0.00 | 67 | 1011.9 |
| 20260505120038 | 64 | 134 | 0.9 | 2.6 | 0.00 | 0.00 | 0.00 | 69 | 1011.8 |
| 20260505114537 | 61 | 157 | 0.0 | 2.6 | 0.00 | 0.00 | 0.00 | 74 | 1011.8 |
| 20260505113044 | 58 | 0 | 0.0 | 0.9 | 0.00 | 0.00 | 0.00 | 76 | 1011.7 |
| 20260505111544 | 57 | 0 | 0.0 | 0.9 | 0.00 | 0.00 | 0.00 | 77 | 1011.8 |
| 20260505101544 | 54 | 275 | 0.0 | 0.9 | 0.00 | 0.00 | 0.00 | 76 | 1011.6 |
| 20260505100040 | 53 | 0 | 0.0 | 0.0 | 0.00 | 0.00 | 0.00 | 77 | 1011.3 |
| 20260505094538 | 54 | 0 | 0.0 | 0.0 | 0.00 | 0.00 | 0.00 | 77 | 1011.1 |
| 20260505093046 | 55 | 0 | 0.0 | 0.0 | 0.00 | 0.00 | 0.00 | 77 | 1011.0 |
| 20260505091537 | 55 | 0 | 0.0 | 0.0 | 0.00 | 0.00 | 0.00 | 77 | 1010.8 |
| 20260505090036 | 56 | 0 | 0.0 | 0.9 | 0.00 | 0.00 | 0.00 | 77 | 1010.7 |
| 20260505084540 | 56 | 275 | 0.9 | 1.7 | 0.00 | 0.00 | 0.00 | 76 | 1010.8 |
| 20260505083052 | 56 | 0 | 0.0 | 0.0 | 0.00 | 0.00 | 0.00 | 76 | 1010.8 |
| 20260505081537 | 57 | 0 | 0.0 | 0.0 | 0.00 | 0.00 | 0.00 | 75 | 1010.8 |
| 20260505080042 | 58 | 0 | 0.0 | 0.0 | 0.00 | 0.00 | 0.00 | 74 | 1011.0 |
| 20260505074537 | 58 | 307 | 0.0 | 1.7 | 0.00 | 0.00 | 0.00 | 74 | 1011.0 |
| 20260505073040 | 58 | 307 | 0.0 | 0.9 | 0.00 | 0.00 | 0.00 | 73 | 1011.0 |
| 20260505071536 | 58 | 307 | 0.0 | 0.9 | 0.00 | 0.00 | 0.00 | 72 | 1011.0 |
| 20260505070058 | 59 | 307 | 0.0 | 1.7 | 0.00 | 0.00 | 0.00 | 71 | 1010.8 |
| 20260505064538 | 60 | 65 | 0.0 | 1.7 | 0.00 | 0.00 | 0.00 | 70 | 1010.9 |
| 20260505063037 | 59 | 352 | 0.0 | 1.7 | 0.00 | 0.00 | 0.00 | 70 | 1010.8 |
| 20260505061553 | 59 | 205 | 0.0 | 1.7 | 0.00 | 0.00 | 0.00 | 70 | 1010.9 |
| 20260505060048 | 59 | 150 | 0.0 | 3.5 | 0.00 | 0.00 | 0.00 | 70 | 1010.8 |
| 20260505054546 | 59 | 184 | 0.0 | 2.6 | 0.00 | 0.00 | 0.00 | 70 | 1010.7 |
| 20260505053039 | 59 | 317 | 0.0 | 2.6 | 0.00 | 0.00 | 0.00 | 70 | 1010.9 |
| 20260505051537 | 57 | 0 | 0.0 | 0.9 | 0.00 | 0.00 | 0.00 | 72 | 1011.0 |
| 20260505041539 | 58 | 200 | 0.9 | 2.6 | 0.00 | 0.00 | 0.00 | 65 | 1010.9 |
| 20260505040052 | 59 | 0 | 0.0 | 2.6 | 0.00 | 0.00 | 0.00 | 62 | 1011.0 |
| 20260505034542 | 59 | 181 | 0.0 | 1.7 | 0.00 | 0.00 | 0.00 | 61 | 1011.0 |
| 20260505033036 | 58 | 204 | 0.0 | 2.6 | 0.00 | 0.00 | 0.00 | 62 | 1011.0 |
| 20260505031548 | 58 | 0 | 0.0 | 0.9 | 0.00 | 0.00 | 0.00 | 62 | 1011.1 |
| 20260505030043 | 59 | 0 | 0.0 | 0.0 | 0.00 | 0.00 | 0.00 | 60 | 1011.3 |
| 20260505024538 | 59 | 170 | 0.0 | 0.9 | 0.00 | 0.00 | 0.00 | 59 | 1011.3 |
| 20260505023040 | 60 | 179 | 0.0 | 2.6 | 0.00 | 0.00 | 0.00 | 58 | 1011.3 |
| 20260505021535 | 60 | 196 | 0.0 | 2.6 | 0.00 | 0.00 | 0.00 | 57 | 1011.3 |
| 20260505020043 | 60 | 176 | 0.0 | 3.5 | 0.00 | 0.00 | 0.00 | 57 | 1011.3 |
| 20260505014542 | 59 | 0 | 0.0 | 0.9 | 0.00 | 0.00 | 0.00 | 58 | 1011.3 |
| 20260505013037 | 58 | 0 | 0.0 | 1.7 | 0.00 | 0.00 | 0.00 | 58 | 1011.3 |
| 20260505011539 | 58 | 0 | 0.0 | 0.0 | 0.00 | 0.00 | 0.00 | 57 | 1011.1 |
| 20260505010045 | 59 | 0 | 0.0 | 0.0 | 0.00 | 0.00 | 0.00 | 56 | 1010.9 |
| 20260505004542 | 60 | 0 | 0.0 | 0.0 | 0.00 | 0.00 | 0.00 | 55 | 1010.6 |
| 20260505003038 | 62 | 0 | 0.0 | 0.0 | 0.00 | 0.00 | 0.00 | 52 | 1010.6 |
| 20260505001537 | 64 | 166 | 0.0 | 0.0 | 0.00 | 0.00 | 0.00 | 49 | 1010.6 |
| 20260505000048 | 65 | 0 | 0.0 | 1.7 | 0.00 | 0.00 | 0.00 | 47 | 1010.5 |
| 20260504234537 | 66 | 121 | 0.0 | 0.9 | 0.00 | 0.00 | 0.00 | 46 | 1010.4 |
| 20260504233044 | 67 | 0 | 0.0 | 1.7 | 0.00 | 0.00 | 0.00 | 44 | 1010.3 |
| 20260504231539 | 68 | 163 | 0.9 | 5.2 | 0.00 | 0.00 | 0.00 | 42 | 1010.2 |
| 20260504230040 | 69 | 304 | 0.9 | 7.0 | 0.00 | 0.00 | 0.00 | 41 | 1010.1 |
| 20260504224538 | 69 | 212 | 0.9 | 4.3 | 0.00 | 0.00 | 0.00 | 41 | 1010.2 |
| 20260504223037 | 70 | 281 | 0.9 | 4.3 | 0.00 | 0.00 | 0.00 | 41 | 1010.1 |
| 20260504221540 | 71 | 155 | 0.9 | 3.5 | 0.00 | 0.00 | 0.00 | 41 | 1010.1 |
| 20260504220048 | 72 | 343 | 0.9 | 6.1 | 0.00 | 0.00 | 0.00 | 39 | 1010.2 |
| 20260504214539 | 73 | 197 | 2.6 | 4.3 | 0.00 | 0.00 | 0.00 | 37 | 1010.2 |
| 20260504213055 | 74 | 285 | 1.7 | 6.1 | 0.00 | 0.00 | 0.00 | 36 | 1010.3 |
| 20260504211541 | 74 | 115 | 0.9 | 5.2 | 0.00 | 0.00 | 0.00 | 39 | 1010.2 |
| 20260504210036 | 74 | 312 | 1.7 | 4.3 | 0.00 | 0.00 | 0.00 | 37 | 1010.3 |
| 20260504204543 | 74 | 176 | 0.9 | 6.1 | 0.00 | 0.00 | 0.00 | 39 | 1010.5 |
| 20260504203040 | 74 | 269 | 0.9 | 5.2 | 0.00 | 0.00 | 0.00 | 37 | 1010.4 |
| 20260504201538 | 74 | 258 | 0.9 | 6.1 | 0.00 | 0.00 | 0.00 | 39 | 1010.6 |
| 20260504200038 | 74 | 268 | 0.9 | 3.5 | 0.00 | 0.00 | 0.00 | 38 | 1010.6 |